Simultaneous Nadir Overpasses (SNOs) Predictions

Prediction of SNOs between AQUA and METOP-A Satellite Orbit:

Table of predicted SNOs for the next 14.0 days since TLE Epoch: 7/10/2020
Index Date (AQUA) Time (AQUA) Lat,Lon (AQUA) SZA (AQUA ) Date (METOP-A) Time (METOP-A) Lat,Lon (METOP-A) SZA (METOP-A ) Distance(km) Time Diff (sec)
1 07/11/2020 09:02:23 76.33, 32.17 54.68 07/11/2020 09:01:19 76.34, 32.09 54.71 2.11 64
2 07/11/2020 09:51:50 -76.38,-160.36 125.26 07/11/2020 09:51:59 -76.40,-160.37 125.25 1.76 9
3 07/11/2020 10:41:24 76.71, 6.16 55.13 07/11/2020 10:42:32 76.73, 8.16 55.01 51.00 68
4 07/14/2020 04:36:38 76.34, 98.57 55.10 07/14/2020 04:35:39 76.36, 98.52 55.14 2.28 59
5 07/14/2020 05:26:05 -76.39, -93.96 124.83 07/14/2020 05:26:20 -76.38, -94.08 124.84 3.50 15
6 07/14/2020 06:15:43 76.91, 71.88 55.79 07/14/2020 06:16:48 76.93, 75.28 55.59 85.55 65
7 07/17/2020 00:10:54 76.36, 164.95 55.58 07/17/2020 00:10:00 76.38, 164.95 55.62 2.69 54
8 07/17/2020 01:00:21 -76.41, -27.57 124.35 07/17/2020 01:00:41 -76.41, -27.64 124.36 1.78 20
9 07/19/2020 19:45:10 76.38,-128.67 56.11 07/19/2020 19:44:21 76.40,-128.62 56.15 3.10 49
10 07/19/2020 20:34:37 -76.43, 38.80 123.82 07/19/2020 20:35:02 -76.43, 38.80 123.83 0.02 25
11 07/22/2020 15:19:25 76.40, -62.32 56.69 07/22/2020 15:18:42 76.38, -62.36 56.69 3.08 43
12 07/22/2020 16:08:52 -76.45, 105.15 123.24 07/22/2020 16:09:22 -76.45, 105.23 123.26 1.99 30
